Location: Aytr�
(46.1357°N, 1.1145°W)
Time: 23:07:06
(UTC+00:00)

Nauka - Pass Details

Date: 22 September 2021
Orbit: 417 x 423 km, 51.6° (Epoch: 16 October)

Event Time Altitude Azimuth Distance (km) Brightness Sun altitude
Rises 18:47:18 0° 254° (WSW) 2,356 ? -8.7°
Reaches altitude 10° 18:49:25 10° 259° (W) 1,495 ? -9.0°
Maximum altitude 18:52:43 55° 338° (NNW) 508 ? -9.6°
Drops below altitude 10° 18:56:03 10° 58° (ENE) 1,503 ? -10.2°
Enters shadow 18:56:16 - 59° (ENE) 1,590 ? -10.2°
